Location: Mountain_View
(35.6670°N, 81.4000°W)
Time: 15:23:14
(UTC-04:00)

Daily predictions for brighter satellites

Satellite Brightness Start Highest point End
(mag) Time Altitude Azimuth Time Altitude Azimuth Time Altitude Azimuth
Cosmos 1833 4.3 21:07:41 10° SSW 21:13:24 87° ESE 21:19:06 10° NNE
NOSS 3-1 (C) 3.7 21:09:36 10° S 21:15:00 44° ESE 21:20:52 10° NE
Cosmos 2292 4.4 21:13:12 10° N 21:16:17 65° E 21:19:55 10° SSE
Cosmos 2151 3.6 21:17:10 10° SSE 21:21:01 37° E 21:24:54 10° NNE
Delta 2 Rocket 3.0 21:20:09 10° W 21:24:03 89° N 21:27:34 10° E
S3M 4.1 21:18:09 10° N 21:24:16 84° W 21:30:26 10° S
Cosmos 2228 Rocket 3.9 21:20:33 10° NNW 21:24:57 54° W 21:29:22 10° S
Cosmos 2058 4.1 21:22:24 10° SE 21:25:42 24° E 21:29:00 10° NE
Hubble Space Telescope 2.5 21:23:24 10° SSW 21:25:55 16° SSE 21:28:18 11° SE
H-2A R/B 3.3 21:22:08 10° S 21:25:56 60° W 21:29:41 10° NNW
Cosmos 2219 Rocket 4.0 21:29:39 10° NNE 21:33:01 16° NE 21:36:23 10° E
COSMOS 2428 3.7 21:28:20 10° N 21:33:23 32° ENE 21:37:58 12° ESE
Cosmos 1437 Rocket 2.9 21:34:13 10° NNW 21:38:03 76° W 21:41:55 10° S
Cosmos 2298 Rocket 4.5 21:33:54 10° S 21:38:50 40° ESE 21:43:47 10° NNE
deb Chang Zheng 4 3.5 21:34:31 10° NNE 21:38:51 69° ESE 21:43:10 10° S
Cosmos 1515 Rocket 4.1 21:37:16 10° NNW 21:41:38 60° W 21:45:56 10° S
Cosmos 304 Rocket 3.8 21:37:34 10° NNW 21:42:23 73° ENE 21:46:51 12° SSE
Cosmos 1726 3.9 21:39:54 10° NNE 21:42:28 17° ENE 21:44:08 14° ESE
Sich 1 4.3 21:40:22 13° SE 21:43:12 24° E 21:46:44 10° NE
SJ-11-01 4.3 21:39:05 10° SSE 21:43:48 87° ENE 21:48:34 10° NNW
Cosmos 1939 Rocket 2.8 21:43:37 12° SSE 21:47:16 65° ENE 21:51:08 10° N
Cosmos 1633 Rocket 4.1 21:47:00 15° SE 21:49:35 26° E 21:53:14 10° NNE
Cosmos 1151 Rocket 3.0 21:45:41 10° N 21:50:02 87° WSW 21:54:22 10° S
CZ-4B R/B 4.3 21:47:15 10° NE 21:51:53 31° E 21:55:23 15° SSE
Cosmos 883 Rocket 4.4 21:46:34 10° N 21:52:46 81° E 21:58:53 10° S
SPOT 5 3.2 21:51:23 16° SE 21:54:50 49° ENE 21:59:29 10° N
DELTA 2 R/B (1) 3.7 21:49:40 10° WNW 21:55:11 68° SSW 21:59:15 18° SE
Meteor 1-4 Rocket 4.4 21:53:19 10° NNE 21:55:47 17° ENE 21:56:51 15° E
Cosmos 2219 3.5 21:54:55 10° SSW 22:00:38 72° WNW 22:06:24 10° NNE
Cosmos 1680 Rocket 3.7 21:59:32 10° NNW 22:04:47 74° WSW 22:09:18 14° S
Aureole 3 4.4 21:59:29 10° S 22:06:11 84° W 22:11:30 10° N
Cosmos 405 4.2 22:02:56 10° NNW 22:06:22 41° W 22:09:45 10° SSW
Cosmos 1805 Rocket 3.5 22:02:01 10° S 22:06:26 76° E 22:10:53 10° N
MetOp-B 4.4 22:03:02 19° SE 22:06:44 53° ENE 22:11:56 10° N
Cosmos 1328 4.2 22:03:51 10° SSW 22:07:45 64° W 22:11:42 10° N
Cosmos 2237 Rocket 3.8 22:03:34 10° N 22:07:46 21° ENE 22:10:50 14° E
H-2A R/B 4.0 22:05:52 12° E 22:08:19 17° ENE 22:11:37 10° NNE
Cosmos 2082 4.5 22:07:50 19° SSE 22:10:57 32° ESE 22:15:57 10° NE
Cosmos 2322 4.3 22:07:37 10° NNW 22:13:11 55° WSW 22:18:02 14° S
Cosmos 1898 Rocket 3.4 22:08:28 10° S 22:13:36 76° ESE 22:18:48 10° NNE
Cosmos 1271 Rocket 3.8 22:12:42 10° NNE 22:16:06 29° ENE 22:17:01 26° ESE
Cosmos 220 Rocket 4.2 22:13:44 19° S 22:16:42 51° ESE 22:21:00 10° NNE
Cosmos 858 Rocket 4.4 22:11:43 10° S 22:16:54 73° ESE 22:22:06 10° NNE
Cosmos 2360 Rocket 3.0 22:12:19 10° NNW 22:17:43 48° WSW 22:22:32 13° S
NOSS 3-1 (A) 3.5 22:14:12 10° SW 22:20:00 77° WNW 22:26:24 10° NNE
SPOT 1/Viking Rocket 3.9 22:17:51 25° SE 22:20:31 49° ENE 22:25:28 10° N
Cosmos 1626 3.9 22:21:47 18° E 22:21:47 18° E 22:23:58 10° NE
H-2A R/B 3.1 22:19:17 12° S 22:23:18 45° W 22:27:38 10° NNW
Cosmos 1703 3.6 22:23:37 35° SE 22:24:35 43° E 22:28:18 10° NNE
SL-14 R/B 3.2 22:23:01 20° S 22:25:40 89° W 22:29:41 10° N
Cosmos 2150 Rocket 4.2 22:21:24 10° SSW 22:26:50 80° WNW 22:32:20 10° NNE
Meteor 2-11 Rocket 4.4 22:21:27 10° N 22:27:37 77° E 22:31:28 24° SSE
Cosmos 2315 Rocket 4.1 22:22:18 10° N 22:28:30 74° W 22:33:35 16° S
Cosmos 1707 Rocket 3.5 22:24:07 10° N 22:28:31 89° WSW 22:30:45 29° S
YAOGAN 6 2.5 22:27:34 41° SSE 22:28:41 71° ENE 22:32:17 10° N
Cosmos 1666 Rocket 3.6 22:25:56 17° S 22:29:20 81° W 22:33:47 10° N
OTV 4 0.2 22:26:21 10° WSW 22:29:20 83° SSE 22:29:40 66° E
Cosmos 1241 Rocket 4.4 22:23:40 10° SSW 22:29:44 61° ESE 22:35:52 10° NE
Terra 3.3 22:31:05 19° E 22:32:15 21° ENE 22:35:47 10° NNE
Meteor 1-27 4.2 22:26:56 10° N 22:32:38 88° W 22:36:02 25° S
SL-08 RB Rocket 4.2 22:32:55 33° ESE 22:34:13 43° ENE 22:38:28 10° N
ATLAS 2AS CENTAUR R/B 2.9 22:34:52 10° SSW 22:42:01 61° ESE 22:49:49 10° NE
Cosmos 1470 Rocket 3.7 22:42:21 45° SE 22:43:06 52° E 22:47:17 10° NNE
Cosmos 2227 Rocket 2.1 22:39:38 21° S 22:43:28 66° ESE 22:49:05 10° NNE
Cosmos 1933 Rocket 3.8 22:43:16 44° SE 22:44:06 51° E 22:48:27 10° NNE
Nadezhda 1 Rocket 4.3 22:39:19 10° N 22:45:13 48° E 22:47:23 34° SE
ERBS 3.3 22:43:19 10° SW 22:46:44 50° NW 22:50:08 10° NNE
Cosmos 1300 3.6 22:44:32 10° NNW 22:48:12 43° W 22:49:46 28° SW
Envisat 4.4 22:45:27 13° SSW 22:49:25 33° W 22:54:01 10° NNW
Tiangong 1 3.4 22:47:21 10° WNW 22:49:58 24° N 22:52:17 12° NE
SL-08 R/B 4.4 22:46:40 22° S 22:50:53 90° WSW 22:57:13 10° N
OAO 2 Rocket 3.3 22:45:36 10° W 22:50:56 82° S 22:53:39 30° E
NOSS 0 Rocket 4.0 22:44:58 10° NNW 22:51:05 63° ENE 22:53:28 38° SE
Cosmos 1745 Rocket 3.9 22:52:09 27° S 22:55:44 85° E 23:01:57 10° N
ATLAS 3B R/B 3.9 22:49:56 10° NNW 22:55:59 30° NE 22:59:21 20° E
SL-16 R/B 3.6 22:58:11 10° N 23:02:51 25° ENE 23:04:25 22° E
USA 32 4.1 22:57:40 10° N 23:02:57 77° W 23:04:53 40° S
Lacrosse 4 Rocket 3.4 22:59:51 10° N 23:03:01 19° NE 23:03:42 18° ENE
Cosmos 1709 Rocket 4.4 23:02:51 38° ESE 23:03:54 41° E 23:09:32 10° NNE
ARGOS 3.2 23:03:30 39° S 23:05:31 74° WSW 23:10:55 10° NNW
Cosmos 2333 Rocket 2.2 23:00:12 10° NNW 23:05:58 72° ENE 23:07:32 48° SE
DMSP B5D2-2 4.2 23:01:07 10° NNE 23:06:13 53° E 23:06:47 50° ESE
Delta 2 Rocket 3.9 23:02:57 10° W 23:05:23 37° WSW 23:05:23 37° WSW
Hubble Space Telescope 3.1 23:03:04 10° SW 23:03:43 13° SW 23:03:43 13° SW
CZ-4 R/B 4.2 23:02:43 10° N 23:07:34 62° WNW 23:10:05 27° SW
Cosmos 2297 Rocket 2.1 23:07:58 40° S 23:10:06 77° ESE 23:15:46 10° NNE
Cosmos 1455 2.4 23:06:45 10° N 23:10:08 59° NE 23:10:08 59° NE
Cosmos 1386 Rocket 4.3 23:13:36 41° S 23:15:51 89° E 23:21:53 10° N
COSMOS 2455 3.7 23:10:42 10° N 23:16:17 38° ENE 23:17:55 32° E
Cosmos 2219 Rocket 2.3 23:11:55 10° NNW 23:17:28 67° WSW 23:18:54 48° S
COSMOS 2428 4.0 23:12:37 10° NW 23:17:32 31° WSW 23:20:00 22° SW
Cosmos 1726 4.1 23:14:44 10° NW 23:17:47 23° W 23:18:49 21° WSW
Cosmos 192 4.3 23:16:30 10° NNW 23:21:24 67° ENE 23:21:44 65° E
CARTOSAT-1 3.5 23:25:07 78° NE 23:25:07 78° NE 23:29:18 10° N
Cosmos 1862 Rocket 3.5 23:23:16 10° N 23:27:33 76° W 23:27:33 76° W
Cosmos 2181 Rocket 4.1 23:32:33 10° N 23:38:54 59° E 23:39:48 54° ESE
Cosmos 1980 3.8 23:34:35 10° NNW 23:40:08 61° WSW 23:40:54 55° SW
IGS 5A 3.9 23:43:40 60° NW 23:43:40 60° NW 23:47:15 10° NNW
NOSS 2-3 (C) 3.9 23:44:46 69° ENE 23:44:46 69° ENE 23:49:39 10° NE
SeaSat 1 4.3 23:43:30 18° ENE 23:44:20 19° NE 23:47:46 10° N
Cosmos 1869 4.1 23:41:31 10° NNW 23:44:53 48° WNW 23:44:53 48° WNW
Spot 2 4.4 23:40:43 10° N 23:45:44 73° WNW 23:46:03 71° WSW
Cosmos 1269 Rocket 4.0 23:41:08 10° NNW 23:46:27 72° ENE 23:46:29 72° ENE
H-2A R/B 2.4 23:46:30 55° SW 23:47:09 59° W 23:52:32 10° NNW
FALCON 9 R/B 3.3 23:28:37 10° W 23:51:25 82° S 23:54:02 45° ESE
Cosmos 2237 Rocket 2.6 23:46:36 10° NNW 23:52:07 52° WSW 23:52:39 50° SW
Cosmos 1869 Rocket 4.2 23:53:42 52° NNE 23:53:42 52° NNE 23:57:08 10° N
Cosmos 1626 4.3 23:56:29 21° W 23:56:35 21° WNW 23:59:31 10° NNW
